Weather History for Roseburg, OR

Change the Weather History Date:

Friday, September 6, 2013

  Actual Average Record
Temperature  
Mean Temperature 70 °F 67 °F  
Max Temperature 81 °F 81 °F 99 °F (1958)
Min Temperature 59 °F 53 °F 42 °F (1960)
Degree Days  
Heating Degree Days 0 1  
Month to date heating degree days 0 6  
Since 1 July heating degree days 1 27  
Cooling Degree Days 5 3  
Month to date cooling degree days 35 23  
Year to date cooling degree days 737 434  
Growing Degree Days 20 (Base 50)    
Moisture  
Dew Point 55 °F    
Average Humidity 62    
Maximum Humidity 90    
Minimum Humidity 33    
Precipitation  
Precipitation T in 0.02 in 0.25 in (1931)
Month to date precipitation 0.10 0.14  
Year to date precipitation 8.64 19.79  
Sea Level Pressure  
Sea Level Pressure 30.13 in    
Wind  
Wind Speed 3 mph (NNW)    
Max Wind Speed 15 mph    
Max Gust Speed 18 mph    
Visibility 10 miles    
Events Rain    
T = Trace of Precipitation, MM = Missing Value Source: NWS Daily Summary

Daily Weather History Graph

Daily Weather History Graph

Search for Another Location

Airport:

Trip Planner

Search our weather history database for the weather conditions in past years. The results will help you decide how hot, cold, wet, or windy it might be!

Date:

Astronomy

Sep. 06, 2013 Rise Set
Actual Time 6:43 AM PDT 7:39 PM PDT
Civil Twilight 6:14 AM PDT 8:07 PM PDT
Nautical Twilight 5:39 AM PDT 8:42 PM PDT
Astronomical Twilight 5:03 AM PDT 9:18 PM PDT
Moon 8:05 AM PDT (9/6) 8:01 PM PDT (9/6)
Length of Visible Light 13h 53m
Length of Day
12h 55m
New Moon, 2% of the Moon is Illuminated
Sep 6
New Moon
Sep 12
First Quarter
Sep 19
Full
Sep 26
Last Quarter
Oct 4
New

Hourly Weather History & Observations

Time (PDT) Temp. Dew Point Humidity Pressure Visibility Wind Dir Wind Speed Gust Speed Precip Events Conditions
12:53 AM 60.1 °F 57.0 °F 90% 30.15 in 10.0 mi Calm Calm - 0.02 in Rain Light Rain
1:53 AM 60.1 °F 57.9 °F 93% 30.15 in 10.0 mi Calm Calm - 0.00 in Rain Light Rain
2:53 AM 60.1 °F 57.0 °F 90% 30.16 in 10.0 mi Calm Calm - 0.00 in   Overcast
3:53 AM 60.1 °F 57.0 °F 90% 30.16 in 10.0 mi Calm Calm - N/A   Overcast
4:53 AM 60.1 °F 57.9 °F 93% 30.17 in 10.0 mi Calm Calm - N/A   Overcast
5:53 AM 60.1 °F 57.0 °F 90% 30.17 in 10.0 mi Calm Calm - N/A   Overcast
6:53 AM 60.1 °F 57.0 °F 90% 30.18 in 10.0 mi Calm Calm - N/A   Overcast
7:53 AM 60.1 °F 57.0 °F 90% 30.20 in 10.0 mi Calm Calm - N/A   Overcast
8:53 AM 62.1 °F 57.0 °F 84% 30.20 in 10.0 mi Calm Calm - N/A   Mostly Cloudy
9:53 AM 64.0 °F 57.0 °F 78% 30.19 in 10.0 mi Calm Calm - N/A   Unknown
10:53 AM 68.0 °F 55.9 °F 65% 30.19 in 10.0 mi Calm Calm - N/A   Clear
11:53 AM 69.1 °F 55.0 °F 61% 30.18 in 10.0 mi SSW 3.5 mph - N/A   Clear
12:53 PM 73.0 °F 53.1 °F 49% 30.15 in 10.0 mi Variable 4.6 mph - N/A   Partly Cloudy
1:53 PM 75.9 °F 51.1 °F 42% 30.13 in 10.0 mi Calm Calm - N/A   Clear
2:53 PM 77.0 °F 50.0 °F 39% 30.11 in 10.0 mi Variable 4.6 mph - N/A   Scattered Clouds
3:53 PM 78.1 °F 50.0 °F 37% 30.09 in 10.0 mi Variable 5.8 mph - N/A   Clear
4:53 PM 80.1 °F 48.9 °F 34% 30.08 in 10.0 mi North 9.2 mph 18.4 mph N/A   Clear
5:53 PM 79.0 °F 51.1 °F 38% 30.07 in 10.0 mi North 11.5 mph 17.3 mph N/A   Clear
6:53 PM 75.9 °F 52.0 °F 43% 30.06 in 10.0 mi NNW 8.1 mph - N/A   Clear
7:53 PM 72.0 °F 55.0 °F 55% 30.08 in 10.0 mi NNW 8.1 mph - N/A   Clear
8:53 PM 70.0 °F 55.9 °F 61% 30.09 in 10.0 mi Calm Calm - N/A   Clear
9:53 PM 68.0 °F 55.9 °F 65% 30.09 in 10.0 mi Calm Calm - N/A   Clear
10:53 PM 66.9 °F 55.9 °F 68% 30.09 in 10.0 mi Calm Calm - N/A   Clear
11:53 PM 64.9 °F 55.9 °F 73% 30.08 in 10.0 mi North 4.6 mph - N/A   Clear